Weather in Kirgiz-Miyaki

Russia / Republic of Bashkortostan     53°37′50″N   54°48′12″E
temp.,
°C
wind,
m/s
gust,
m/s
humid.,
%
clouds,
%
prec.,
mm/h
press.,
hPa
HPBL,
m
20 june, sun
sun2023:00+15wsw411890 0.0 1021221
02:00+16w513841 0.0 1019290
05:00+15w412901 0.0 1019266
08:00+20wnw48810 0.0 1018281
11:00+24nw69710 0.8 1018743
14:00+27nnw7115412 0.7 10181984
17:00+24nnw69700 1.5 10191254
20:00+23nnw49750 0.6 1018372
21 june, mon
mon2123:00+17nne33840 0.6 102125
02:00+14n22800 0.0 102211
05:00+12nne22745 0.0 102311
08:00+16ne236311 0.0 1024216
11:00+20ne23515 0.0 1024626
14:00+23nne12496 0.0 1024901
17:00+25w145011 0.0 10231421
20:00+23w2473100 0.0 1021135
22 june, tue
tue2223:00+19w228619 0.3 102212
02:00+17wsw22925 1.3 102213
05:00+17wsw22935 1.6 102219
08:00+21w25833 0.2 1022236
11:00+25wnw46725 1.4 1021577
14:00+28wnw455233 0.2 10211601
17:00+29wnw355174 0.3 10202196
20:00+24sw24785 1.9 1020116
23 june, wed
wed2323:00+21wsw22858 2.4 102021
02:00+19w11873 0.0 102011
05:00+18wsw22906 0.1 102021
08:00+22wnw25815 0.4 1020250
11:00+27nnw46630 1.3 1020856
14:00+29nnw45520 0.4 10201879
17:00+29n45513 0.4 10191873
20:00+27nnw24714 0.1 1018105
24 june, thu
thu2423:00+20ne3691100 1.1 1020146
02:00+19sw118999 0.3 102011
05:00+18wnw0090100 0.9 102011
08:00+21w118220 0.1 1019198
11:00+25nw23685 0.1 1019854
14:00+28nnw346099 1.4 10181330
17:00+27nnw346393 4.5 1018855
20:00+24nw127763 1.4 101726